[TLELIST] Archives

 

[TLELIST] Current TLEs

November 7th 2023 PDT

HST 1 20580U 90037B 23310.93544118 .00009766 00000-0 50278-3 0 9991 2 20580 28.4704 37.2416 0003061 122.1450 33.1910 15.14740404643381 ISS (ZARYA) 1 25544U 98067A 23311.48365316 .00023963 00000-0 42288-3 0 9996 2 25544 51.6442 338.7538 0000982 86.1759 73.8734 15.50248001424015 CXO 1 25867U 99040B 23313.38850794 .00000898 00000-0 00000-0 0 9991 2 25867 37.5986 178.2323 9037772 277.6394 0.0473 0.37818843 13726 ...Continue Reading

[TLELIST] Current TLEs

November 6th 2023 PDT

HST 1 20580U 90037B 23309.67613080 .00011869 00000-0 61345-3 0 9999 2 20580 28.4701 45.6391 0003151 110.3711 4.2422 15.14717115643180 ISS (ZARYA) 1 25544U 98067A 23310.44789308 .00026493 00000-0 46746-3 0 9996 2 25544 51.6441 343.8812 0001018 84.6791 51.1776 15.50192463423852 CXO 1 25867U 99040B 23313.38834949 .00000898 00000-0 00000+0 0 9994 2 25867 37.5986 178.2325 9037766 277.6393 0.0260 0.37818860 24882 ...Continue Reading

[TLELIST] Current TLEs

November 6th 2023 PDT

HST 1 20580U 90037B 23309.67613080 .00011869 00000-0 61345-3 0 9999 2 20580 28.4701 45.6391 0003151 110.3711 4.2422 15.14717115643180 ISS (ZARYA) 1 25544U 98067A 23310.44789308 .00026493 00000-0 46746-3 0 9996 2 25544 51.6441 343.8812 0001018 84.6791 51.1776 15.50192463423852 CXO 1 25867U 99040B 23313.38834949 .00000898 00000-0 00000+0 0 9994 2 25867 37.5986 178.2325 9037766 277.6393 0.0260 0.37818860 24882 ...Continue Reading

[TLELIST] Current TLEs

November 6th 2023 PDT

HST 1 20580U 90037B 23309.67613080 .00011869 00000-0 61345-3 0 9999 2 20580 28.4701 45.6391 0003151 110.3711 4.2422 15.14717115643180 ISS (ZARYA) 1 25544U 98067A 23310.44789308 .00026493 00000-0 46746-3 0 9996 2 25544 51.6441 343.8812 0001018 84.6791 51.1776 15.50192463423852 CXO 1 25867U 99040B 23313.38834949 .00000898 00000-0 00000+0 0 9994 2 25867 37.5986 178.2325 9037766 277.6393 0.0260 0.37818860 24882 ...Continue Reading

[TLELIST] Current TLEs

November 5th 2023 PDT

HST 1 20580U 90037B 23308.75708392 .00007079 00000-0 36227-3 0 9997 2 20580 28.4700 51.7672 0003155 101.7271 31.4035 15.14695494642780 ISS (ZARYA) 1 25544U 98067A 23309.54814200 .00019625 00000-0 34933-3 0 9999 2 25544 51.6445 348.3398 0000977 73.7821 77.5941 15.50134150423711 CXO 1 25867U 99040B 23310.74490464 .00000880 00000-0 00000-0 0 9993 2 25867 37.5751 178.5875 9040621 277.3455 0.1523 0.37815001 13712 ...Continue Reading

[TLELIST] Current TLEs

November 5th 2023 PDT

HST 1 20580U 90037B 23308.75708392 .00007079 00000-0 36227-3 0 9997 2 20580 28.4700 51.7672 0003155 101.7271 31.4035 15.14695494642780 ISS (ZARYA) 1 25544U 98067A 23309.54814200 .00019625 00000-0 34933-3 0 9999 2 25544 51.6445 348.3398 0000977 73.7821 77.5941 15.50134150423711 CXO 1 25867U 99040B 23310.74490464 .00000880 00000-0 00000-0 0 9993 2 25867 37.5751 178.5875 9040621 277.3455 0.1523 0.37815001 13712 ...Continue Reading

[TLELIST] Current TLEs

November 4th 2023 PDT

HST 1 20580U 90037B 23307.70482535 .00006967 00000-0 35656-3 0 9999 2 20580 28.4699 58.7840 0003111 91.4311 52.4360 15.14680501642623 ISS (ZARYA) 1 25544U 98067A 23308.38021311 .00022169 00000-0 39401-3 0 9995 2 25544 51.6449 354.1269 0001169 82.4196 27.1582 15.50095193423538 CXO 1 25867U 99040B 23310.74490464 .00000880 00000-0 00000+0 0 9992 2 25867 37.5751 178.5875 9040621 277.3455 0.1523 0.37815001 24871 ...Continue Reading

[TLELIST] Current TLEs

November 3rd 2023 PDT

HST 1 20580U 90037B 23306.77942491 .00006241 00000-0 31850-3 0 9994 2 20580 28.4697 64.9551 0003111 82.4287 45.3411 15.14667176642486 ISS (ZARYA) 1 25544U 98067A 23307.34722375 .00007633 00000-0 14140-3 0 9990 2 25544 51.6433 359.2481 0000683 39.1981 62.2194 15.50034869423378 CXO 1 25867U 99040B 23308.09860768 .00000840 00000-0 00000-0 0 9992 2 25867 37.5545 178.9438 9042195 277.0457 359.9147 0.37812199 13700 ...Continue Reading

[TLELIST] Current TLEs

November 3rd 2023 PDT

HST 1 20580U 90037B 23306.77942491 .00006241 00000-0 31850-3 0 9994 2 20580 28.4697 64.9551 0003111 82.4287 45.3411 15.14667176642486 ISS (ZARYA) 1 25544U 98067A 23307.34722375 .00007633 00000-0 14140-3 0 9990 2 25544 51.6433 359.2481 0000683 39.1981 62.2194 15.50034869423378 CXO 1 25867U 99040B 23308.09860768 .00000840 00000-0 00000-0 0 9992 2 25867 37.5545 178.9438 9042195 277.0457 359.9147 0.37812199 13700 ...Continue Reading

[TLELIST] [TLELIST] Current TLEs

November 3rd 2023 PDT

HST 1 20580U 90037B 23306.77942491 .00006241 00000-0 31850-3 0 9994 2 20580 28.4697 64.9551 0003111 82.4287 45.3411 15.14667176642486 ISS (ZARYA) 1 25544U 98067A 23307.34722375 .00007633 00000-0 14140-3 0 9990 2 25544 51.6433 359.2481 0000683 39.1981 62.2194 15.50034869423378 CXO 1 25867U 99040B 23308.09860768 .00000840 00000-0 00000-0 0 9992 2 25867 37.5545 178.9438 9042195 277.0457 359.9147 0.37812199 13700 ...Continue Reading
  • This mailing list is a public mailing list - anyone may join or leave, at any time.
  • This mailing list is announce-only.

International Space Station (ISS) / Hubble Space Telescope (HST) / Chandra X-Ray Observatory Orbital Data via EMAIL

Privacy Policy:

Private list